Aberdeen, SD

10:50 PM CDT on October 13, 2019 (GMT -0500)
Aberdeen Regional

Weather History for KABR - September, 2019

Change the Weather History Date:

Friday, September 20, 2019

  Actual Average Record
Temperature  
Mean Temperature 78 °F 57 °F  
Max Temperature 87 °F 70 °F 94 °F (1937)
Min Temperature 69 °F 44 °F 20 °F (1901)
Degree Days  
Heating Degree Days 0    
Month to date heating degree days 45  
Since 1 July heating degree days 63  
Cooling Degree Days 13    
Month to date cooling degree days 66  
Year to date cooling degree days 599  
Growing Degree Days 28 (Base 50)    
Moisture  
Dew Point 67 °F    
Average Humidity 71    
Maximum Humidity 87    
Minimum Humidity 50    
Precipitation  
Precipitation 0.00 in 0.07 in 1.50 in (1989)
Month to date precipitation 4.54 1.48  
Year to date precipitation 24.96 17.77  
Snow  
Snow 0.00 in 0.00 in - ()
Month to date snowfall 0.0 0.0  
Since 1 July snowfall 0.0 0.0  
Snow Depth 0.00 in    
Sea Level Pressure  
Sea Level Pressure 29.76 in    
Wind  
Wind Speed 13 mph ()    
Max Wind Speed 29 mph    
Max Gust Speed 39 mph    
Visibility 10.0 miles    
Events      
T = Trace of Precipitation, MM = Missing Value Source: Averaged Metar Reports

Daily Weather History Graph

Daily Weather History Graph

Search for Another Location

Airport or City:

Astronomy

Sep. 20, 2019 Rise Set
Actual Time 7:18 AM CDT 7:35 PM CDT
Civil Twilight 6:48 AM CDT 8:04 PM CDT
Nautical Twilight 6:13 AM CDT 8:39 PM CDT
Astronomical Twilight 5:37 AM CDT 9:15 PM CDT
Moon 11:08 PM CDT (9/20) 1:41 PM CDT (9/20)
Length of Visible Light 13h 16m
Length of Day
12h 17m
Waning Gibbous, 65% of the Moon is Illuminated
Sep 20
Waning Gibbous
Sep 21
Last Quarter
Sep 28
New
Oct 5
First Quarter
Oct 13
Full

Hourly Weather History & Observations

Time (CDT) Temp. Heat Index Dew Point Humidity Pressure Visibility Wind Dir Wind Speed Gust Speed Precip Events Conditions
12:53 AM 69.1 °F - 64.0 °F 84% 29.87 in 10.0 mi ESE 9.2 mph - N/A   Scattered Clouds
1:53 AM 70.0 °F - 64.0 °F 81% 29.86 in 10.0 mi SE 10.4 mph - N/A   Partly Cloudy
2:53 AM 71.1 °F - 64.9 °F 81% 29.83 in 10.0 mi SE 12.7 mph - N/A   Partly Cloudy
3:53 AM 72.0 °F - 66.0 °F 81% 29.80 in 10.0 mi SE 17.3 mph - N/A   Clear
4:53 AM 72.0 °F - 66.9 °F 84% 29.80 in 10.0 mi SSE 15.0 mph - N/A   Clear
5:53 AM 71.1 °F - 66.9 °F 87% 29.81 in 10.0 mi SSE 10.4 mph - N/A   Clear
6:53 AM 71.1 °F - 66.9 °F 87% 29.81 in 10.0 mi SSE 9.2 mph - N/A   Clear
7:53 AM 72.0 °F - 66.9 °F 84% 29.82 in 10.0 mi SSE 15.0 mph - N/A   Clear
8:53 AM 73.9 °F - 68.0 °F 82% 29.82 in 10.0 mi South 17.3 mph 25.3 mph N/A   Clear
9:53 AM 77.0 °F - 68.0 °F 74% 29.82 in 10.0 mi South 18.4 mph 27.6 mph N/A   Clear
10:53 AM 79.0 °F - 69.1 °F 72% 29.81 in 10.0 mi South 19.6 mph 28.8 mph N/A   Clear
11:53 AM 82.0 °F 85.5 °F 69.1 °F 65% 29.79 in 10.0 mi South 21.9 mph 31.1 mph N/A   Clear
12:53 PM 84.0 °F 87.8 °F 69.1 °F 61% 29.77 in 10.0 mi SSE 20.7 mph 32.2 mph N/A   Clear
1:53 PM 86.0 °F 89.4 °F 68.0 °F 55% 29.74 in 10.0 mi South 21.9 mph 34.5 mph N/A   Clear
2:53 PM 87.1 °F 89.9 °F 66.9 °F 51% 29.72 in 10.0 mi South 20.7 mph 34.5 mph N/A   Clear
3:53 PM 86.0 °F 88.8 °F 66.9 °F 53% 29.73 in 10.0 mi South 24.2 mph 35.7 mph N/A   Partly Cloudy
4:53 PM 84.0 °F 87.8 °F 69.1 °F 61% 29.72 in 10.0 mi South 18.4 mph 29.9 mph N/A   Clear
5:53 PM 84.9 °F 88.2 °F 68.0 °F 57% 29.70 in 10.0 mi SSE 17.3 mph 29.9 mph N/A   Clear
6:53 PM 82.9 °F 85.0 °F 66.0 °F 56% 29.68 in 10.0 mi South 16.1 mph 26.5 mph N/A   Clear
7:53 PM 79.0 °F - 66.0 °F 64% 29.68 in 10.0 mi South 12.7 mph - N/A   Clear
8:53 PM 78.1 °F - 66.0 °F 66% 29.67 in 10.0 mi South 17.3 mph - N/A   Clear
9:53 PM 75.9 °F - 66.0 °F 71% 29.67 in 10.0 mi South 18.4 mph 26.5 mph N/A   Clear
10:53 PM 75.9 °F - 66.0 °F 71% 29.67 in 10.0 mi South 16.1 mph - N/A   Clear
11:53 PM 75.0 °F - 64.9 °F 71% 29.66 in 10.0 mi South 15.0 mph 24.2 mph N/A   Clear